Simultaneous Nadir Overpasses (SNOs) Predictions

Prediction of SNOs between AQUA and NPP Satellite Orbit:

Table of predicted SNOs for the next 14.0 days since TLE Epoch: 1/11/2013
Index Date (AQUA) Time (AQUA) Lat,Lon (AQUA) SZA (AQUA ) Date (NPP) Time (NPP) Lat,Lon (NPP) SZA (NPP ) Distance(km) Time Diff (sec)
1 01/13/2013 15:44:03 76.86,-174.16 117.54 01/13/2013 15:43:37 76.86,-174.20 117.57 1.20 26
2 01/13/2013 16:33:16 -77.53, -3.93 63.26 01/13/2013 16:34:07 -77.53, -4.02 63.28 2.35 51
3 01/16/2013 07:14:48 -65.00, 113.10 50.99 01/16/2013 07:13:35 -65.21, 111.73 50.59 68.03 73
4 01/16/2013 08:00:26 77.11, -57.37 116.82 01/16/2013 08:00:25 77.11, -57.40 116.83 1.01 1
5 01/16/2013 08:48:30 -80.44, 130.28 67.76 01/16/2013 08:49:44 -80.23, 130.94 67.90 26.62 74
6 01/18/2013 23:27:38 -76.68,-110.68 63.16 01/18/2013 23:26:44 -76.69,-110.64 63.12 1.15 54
7 01/19/2013 00:16:50 77.31, 59.29 116.10 01/19/2013 00:17:14 77.30, 59.22 116.10 1.84 24
8 01/21/2013 15:44:03 -76.84, 5.78 63.88 01/21/2013 15:43:34 -76.84, 5.75 63.85 0.74 29
9 01/21/2013 16:33:09 77.74, 176.95 115.05 01/21/2013 16:33:57 77.74, 177.04 114.99 2.42 48
10 01/24/2013 08:00:21 -77.29, 123.33 64.98 01/24/2013 08:00:16 -77.29, 123.42 65.00 2.41 5




NCC Satellite Simultaneous Nadir Overpasses (SNOs) Prediction Service
